Weather History for KFFX - June, 2013

Change the Weather History Date:

Thursday, June 20, 2013

  Actual Average (KMKG) Record (KMKG)
Temperature  
Mean Temperature 65 °F 68 °F  
Max Temperature 81 °F 77 °F 98 °F (1995)
Min Temperature 49 °F 58 °F 35 °F (1936)
Degree Days  
Heating Degree Days 0 2  
Month to date heating degree days 56  
Since 1 June heating degree days 56  
Since 1 July heating degree days 6550  
Cooling Degree Days 0 4  
Month to date cooling degree days 55  
Year to date cooling degree days 84  
Since 1 June cooling degree days 55  
Growing Degree Days 15 (Base 50)    
Moisture  
Dew Point 50 °F    
Average Humidity 60    
Maximum Humidity 97    
Minimum Humidity 29    
Precipitation  
Precipitation 0.00 in 0.09 in 2.11 in (1954)
Month to date precipitation 1.76  
Year to date precipitation 14.03  
Snow  
Snow 0.00 in 0.00 in - ()
Month to date snowfall 0.0  
Since 1 June snowfall 0.0  
Since 1 July snowfall 93.7  
Snow Depth -    
Sea Level Pressure  
Sea Level Pressure 30.16 in    
Wind  
Wind Speed 2 mph (South)    
Max Wind Speed 8 mph    
Max Gust Speed -    
Visibility 9 miles    
Events      
T = Trace of Precipitation, MM = Missing Value Source: NWS Daily Summary

Daily Weather History Graph

Daily Weather History Graph

Search for Another Location

Airport or City:

Trip Planner

Search our weather history database for the weather conditions in past years. The results will help you decide how hot, cold, wet, or windy it might be!

Date:

Astronomy

Jun. 20, 2013 Rise Set
Actual Time 6:03 AM EDT 9:28 PM EDT
Civil Twilight 5:27 AM EDT 10:03 PM EDT
Nautical Twilight 4:40 AM EDT 10:50 PM EDT
Astronomical Twilight 3:41 AM EDT 11:49 PM EDT
Moon 6:26 PM EDT (6/20) 3:33 AM EDT (6/20)
Length of Visible Light 16h 36m
Length of Day
15h 25m
Waxing Gibbous, 89% of the Moon is Illuminated
Jun 20
Waxing Gibbous
Jun 23
Full
Jun 30
Last Quarter
Jul 8
New
Jul 15
First Quarter

Hourly Weather History & Observations

Time (EDT) Temp. Dew Point Humidity Pressure Visibility Wind Dir Wind Speed Gust Speed Precip Events Conditions
12:15 AM 52.7 °F 48.4 °F 85% 30.14 in 10.0 mi Calm Calm - N/A   Clear
12:34 AM 53.4 °F 50.5 °F 90% 30.14 in 10.0 mi Calm Calm - N/A   Clear
12:55 AM 54.7 °F 48.6 °F 80% 30.14 in 10.0 mi East 4.6 mph - N/A   Clear
1:14 AM 53.2 °F 48.4 °F 84% 30.13 in 10.0 mi East 3.5 mph - N/A   Clear
1:35 AM 54.3 °F 48.2 °F 80% 30.13 in 10.0 mi Calm Calm - N/A   Clear
1:54 AM 52.3 °F 47.8 °F 85% 30.13 in 10.0 mi East 3.5 mph - N/A   Clear
2:15 AM 52.0 °F 48.0 °F 86% 30.13 in 10.0 mi Calm Calm - N/A   Clear
2:34 AM 52.5 °F 48.2 °F 85% 30.13 in 10.0 mi Calm Calm - N/A   Clear
2:55 AM 52.9 °F 48.4 °F 85% 30.14 in 10.0 mi Calm Calm - N/A   Clear
3:15 AM 51.1 °F 47.8 °F 89% 30.14 in 10.0 mi Calm Calm - N/A   Clear
3:35 AM 51.3 °F 48.4 °F 90% 30.15 in 10.0 mi Calm Calm - N/A   Clear
3:54 AM 51.4 °F 48.6 °F 90% 30.15 in 10.0 mi Calm Calm - N/A   Clear
4:15 AM 52.0 °F 50.5 °F 95% 30.15 in 10.0 mi East 3.5 mph - N/A   Clear
4:34 AM 50.9 °F 48.6 °F 92% 30.15 in 10.0 mi Calm Calm - N/A   Clear
4:55 AM 50.5 °F 49.1 °F 95% 30.15 in 10.0 mi Calm Calm - N/A   Clear
5:14 AM 49.1 °F 47.5 °F 94% 30.15 in 10.0 mi Calm Calm - N/A   Clear
5:35 AM 50.0 °F 49.1 °F 97% 30.15 in 10.0 mi Calm Calm - N/A   Clear
5:54 AM 50.9 °F 48.6 °F 92% 30.16 in 10.0 mi Calm Calm - N/A   Clear
6:15 AM 49.5 °F 48.7 °F 97% 30.16 in 10.0 mi East 3.5 mph - N/A   Clear
6:35 AM 50.7 °F 49.3 °F 95% 30.17 in 10.0 mi East 3.5 mph - N/A   Clear
6:55 AM 53.1 °F 50.5 °F 91% 30.17 in 10.0 mi Calm Calm - N/A   Clear
7:15 AM 54.5 °F 51.8 °F 91% 30.17 in 10.0 mi Calm Calm - N/A   Clear
7:34 AM 56.3 °F 52.0 °F 85% 30.18 in 10.0 mi Calm Calm - N/A   Clear
7:55 AM 58.3 °F 51.3 °F 77% 30.18 in 10.0 mi Calm Calm - N/A   Clear
8:15 AM 59.2 °F 50.5 °F 73% 30.18 in 10.0 mi Calm Calm - N/A   Clear
8:35 AM 60.6 °F 51.3 °F 71% 30.19 in 10.0 mi Calm Calm - N/A   Clear
8:55 AM 62.1 °F 51.8 °F 69% 30.19 in 10.0 mi Calm Calm - N/A   Clear
9:15 AM 63.5 °F 51.8 °F 66% 30.19 in 10.0 mi Calm Calm - N/A   Clear
9:35 AM 66.2 °F 52.7 °F 62% 30.19 in 10.0 mi SSW 3.5 mph - N/A   Clear
9:54 AM 68.0 °F 48.9 °F 50% 30.18 in 10.0 mi South 3.5 mph - N/A   Clear
10:15 AM 69.3 °F 47.8 °F 46% 30.19 in 10.0 mi SW 3.5 mph - N/A   Clear
10:34 AM 70.3 °F 47.7 °F 44% 30.20 in 10.0 mi Calm Calm - N/A   Clear
10:55 AM 71.4 °F 46.8 °F 41% 30.20 in 10.0 mi South 4.6 mph - N/A   Scattered Clouds
11:15 AM 73.0 °F 45.5 °F 37% 30.19 in 10.0 mi Calm Calm - N/A   Scattered Clouds
11:34 AM 73.8 °F 44.8 °F 35% 30.20 in 10.0 mi SSW 3.5 mph - N/A   Clear
11:55 AM 74.8 °F 46.6 °F 37% 30.19 in 10.0 mi South 3.5 mph - N/A   Clear
12:15 PM 76.1 °F 45.9 °F 34% 30.20 in 10.0 mi South 6.9 mph - N/A   Clear
12:34 PM 76.5 °F 45.3 °F 33% 30.20 in 10.0 mi SSW 4.6 mph - N/A   Clear
12:55 PM 78.4 °F 46.6 °F 32% 30.20 in 10.0 mi Calm Calm - N/A   Clear
1:15 PM 78.3 °F 45.9 °F 32% 30.19 in 10.0 mi Calm Calm - N/A   Clear
1:35 PM 77.7 °F 45.9 °F 32% 30.18 in 7.0 mi Calm Calm - N/A   Clear
1:55 PM 79.0 °F 47.7 °F 33% 30.18 in 7.0 mi South 5.8 mph - N/A   Clear
2:14 PM 78.8 °F 46.9 °F 32% 30.18 in 7.0 mi Calm Calm - N/A   Clear
2:35 PM 79.3 °F 48.4 °F 34% 30.17 in 7.0 mi South 5.8 mph - N/A   Clear
2:54 PM 80.2 °F 48.0 °F 32% 30.17 in 7.0 mi SSW 4.6 mph - N/A   Clear
3:15 PM 79.0 °F 48.0 °F 34% 30.16 in 7.0 mi SSE 8.1 mph - N/A   Scattered Clouds
3:35 PM 81.1 °F 48.7 °F 32% 30.17 in 7.0 mi SSE 4.6 mph - N/A   Clear
3:54 PM 81.1 °F 46.4 °F 29% 30.16 in 7.0 mi Calm Calm - N/A   Clear
4:15 PM 80.4 °F 48.0 °F 32% 30.16 in 7.0 mi Calm Calm - N/A   Clear
4:35 PM 81.0 °F 48.4 °F 32% 30.15 in 10.0 mi South 8.1 mph - N/A   Clear
4:55 PM 80.8 °F 48.4 °F 32% 30.15 in 7.0 mi SW 3.5 mph - N/A   Clear
5:15 PM 80.4 °F 48.0 °F 32% 30.15 in 7.0 mi SSW 5.8 mph - N/A   Clear
5:35 PM 81.7 °F 48.9 °F 32% 30.15 in 7.0 mi SW 4.6 mph - N/A   Clear
5:55 PM 80.4 °F 48.6 °F 33% 30.15 in 7.0 mi SSW 5.8 mph - N/A   Clear
6:14 PM 79.9 °F 48.7 °F 34% 30.14 in 10.0 mi SSW 5.8 mph - N/A   Clear
6:35 PM 80.1 °F 48.2 °F 33% 30.14 in 10.0 mi SSW 5.8 mph - N/A   Clear
6:55 PM 79.9 °F 49.5 °F 34% 30.13 in 7.0 mi SSW 8.1 mph - N/A   Clear
7:15 PM 79.3 °F 49.1 °F 35% 30.13 in 7.0 mi SSW 4.6 mph - N/A   Clear
7:34 PM 78.8 °F 49.3 °F 35% 30.13 in 10.0 mi SSW 4.6 mph - N/A   Clear
7:55 PM 78.6 °F 48.4 °F 34% 30.13 in 7.0 mi WSW 3.5 mph - N/A   Clear
8:15 PM 77.4 °F 50.7 °F 39% 30.13 in 7.0 mi Calm Calm - N/A   Clear
8:34 PM 76.1 °F 53.6 °F 45% 30.13 in 7.0 mi Calm Calm - N/A   Clear
8:55 PM 74.5 °F 53.6 °F 48% 30.14 in 7.0 mi Calm Calm - N/A   Clear
9:14 PM 72.7 °F 54.5 °F 53% 30.14 in 10.0 mi Calm Calm - N/A   Clear
9:35 PM 70.2 °F 55.0 °F 59% 30.14 in 10.0 mi Calm Calm - N/A   Clear
9:55 PM 66.6 °F 58.8 °F 76% 30.14 in 10.0 mi Calm Calm - N/A   Clear
10:14 PM 65.3 °F 58.1 °F 77% 30.15 in 10.0 mi Calm Calm - N/A   Clear
10:35 PM 65.1 °F 58.5 °F 79% 30.16 in 10.0 mi Calm Calm - N/A   Clear
10:55 PM 65.1 °F 59.0 °F 81% 30.16 in 10.0 mi ENE 3.5 mph - N/A   Clear
11:14 PM 64.9 °F 58.5 °F 79% 30.16 in 10.0 mi ENE 3.5 mph - N/A   Clear
11:35 PM 66.6 °F 57.2 °F 72% 30.16 in 10.0 mi ENE 4.6 mph - N/A   Clear
11:54 PM 66.6 °F 56.3 °F 69% 30.16 in 10.0 mi ENE 3.5 mph - N/A   Clear